Hourly Weather Abasolo

Today, 28 September, Monday

Time Temperature Precipitation Wind Pressure Humidity
00:00 +20°C° 0 mm 1 mps 620 mmHg 65%
01:00 +17°C° 0 mm 0 mps 620 mmHg 69%
02:00 +17°C° 0 mm 0 mps 620 mmHg 74%
03:00 +16°C° 0 mm 0 mps 619 mmHg 79%
04:00 +15°C° 0 mm 0 mps 619 mmHg 84%
05:00 +14°C° 0 mm 0 mps 619 mmHg 89%
06:00 +17°C° 0 mm 0 mps 620 mmHg 81%
07:00 +19°C° 0 mm 0 mps 621 mmHg 73%
08:00 +21°C° 0 mm 0 mps 622 mmHg 64%
09:00 +25°C° 0 mm 1 mps 623 mmHg 52%
10:00 +27°C° 0 mm 3 mps 623 mmHg 39%
11:00 +29°C° 0 mm 4 mps 624 mmHg 27%
12:00 +30°C° 0 mm 4 mps 623 mmHg 24%
13:00 +30°C° 0 mm 4 mps 623 mmHg 21%
14:00 +32°C° 0 mm 5 mps 622 mmHg 19%
15:00 +29°C° 0 mm 4 mps 621 mmHg 25%
16:00 +27°C° 0 mm 4 mps 621 mmHg 31%
17:00 +25°C° 0 mm 4 mps 620 mmHg 37%
18:00 +22°C° 0 mm 3 mps 621 mmHg 42%
19:00 +19°C° 0 mm 3 mps 621 mmHg 47%
20:00 +17°C° 0 mm 2 mps 621 mmHg 52%
21:00 +17°C° 0 mm 2 mps 621 mmHg 61%
22:00 +16°C° 0 mm 2 mps 621 mmHg 70%
23:00 +15°C° 0 mm 1 mps 621 mmHg 79%

Tomorrow, 29 September, Tuesday

Time Temperature Precipitation Wind Pressure Humidity
00:00 +15°C° 0 mm 1 mps 621 mmHg 82%
01:00 +15°C° 0 mm 1 mps 621 mmHg 85%
02:00 +15°C° 0 mm 1 mps 621 mmHg 89%
03:00 +15°C° 0 mm 1 mps 621 mmHg 88%
04:00 +15°C° 0 mm 1 mps 621 mmHg 88%
05:00 +15°C° 0 mm 1 mps 621 mmHg 88%
06:00 +17°C° 0 mm 2 mps 622 mmHg 81%
07:00 +18°C° 0 mm 3 mps 623 mmHg 75%
08:00 +20°C° 0 mm 3 mps 624 mmHg 68%
09:00 +21°C° 0 mm 4 mps 624 mmHg 62%
10:00 +22°C° 0 mm 4 mps 625 mmHg 57%
11:00 +25°C° 0 mm 4 mps 625 mmHg 51%
12:00 +25°C° 0 mm 4 mps 624 mmHg 49%
13:00 +26°C° 0 mm 5 mps 624 mmHg 46%
14:00 +27°C° 0 mm 5 mps 624 mmHg 44%
15:00 +25°C° 0 mm 5 mps 623 mmHg 49%
16:00 +22°C° 0 mm 4 mps 622 mmHg 54%
17:00 +20°C° 0 mm 4 mps 622 mmHg 60%
18:00 +18°C° 0 mm 4 mps 622 mmHg 64%
19:00 +16°C° 0 mm 3 mps 622 mmHg 69%
20:00 +13°C° 0 mm 3 mps 622 mmHg 74%
21:00 +13°C° 0 mm 2 mps 622 mmHg 76%
22:00 +12°C° 0 mm 2 mps 622 mmHg 78%
23:00 +12°C° 0 mm 2 mps 622 mmHg 81%

Day after tomorrow, 30 September, Wednesday

Time Temperature Precipitation Wind Pressure Humidity
00:00 +11°C° 0 mm 1 mps 622 mmHg 83%
01:00 +11°C° 0 mm 1 mps 621 mmHg 85%
02:00 +10°C° 0 mm 1 mps 621 mmHg 88%
03:00 +10°C° 0 mm 1 mps 621 mmHg 89%
04:00 +9°C° 0 mm 1 mps 621 mmHg 91%
05:00 +9°C° 0 mm 1 mps 621 mmHg 92%
06:00 +11°C° 0 mm 1 mps 622 mmHg 82%
07:00 +13°C° 0 mm 1 mps 623 mmHg 72%
08:00 +15°C° 0 mm 2 mps 624 mmHg 62%
09:00 +18°C° 0 mm 2 mps 624 mmHg 53%
10:00 +21°C° 0 mm 2 mps 625 mmHg 44%
11:00 +24°C° 0 mm 3 mps 625 mmHg 35%
12:00 +25°C° 0 mm 3 mps 624 mmHg 31%
13:00 +27°C° 0 mm 3 mps 624 mmHg 28%
14:00 +28°C° 0 mm 3 mps 624 mmHg 24%
15:00 +26°C° 0 mm 3 mps 623 mmHg 28%
16:00 +24°C° 0 mm 3 mps 622 mmHg 31%
17:00 +21°C° 0 mm 3 mps 622 mmHg 35%
18:00 +18°C° 0 mm 2 mps 621 mmHg 36%
19:00 +16°C° 0 mm 2 mps 621 mmHg 37%
20:00 +13°C° 0 mm 1 mps 621 mmHg 39%
21:00 +12°C° 0 mm 1 mps 621 mmHg 41%
22:00 +11°C° 0 mm 1 mps 621 mmHg 43%
23:00 +10°C° 0 mm 1 mps 620 mmHg 45%

1 October, Thursday

Time Temperature Precipitation Wind Pressure Humidity
00:00 +10°C° 0 mm 1 mps 620 mmHg 49%
01:00 +9°C° 0 mm 1 mps 619 mmHg 54%
02:00 +8°C° 0 mm 1 mps 619 mmHg 58%
03:00 +8°C° 0 mm 1 mps 619 mmHg 62%
04:00 +7°C° 0 mm 1 mps 619 mmHg 65%
05:00 +7°C° 0 mm 1 mps 618 mmHg 68%
06:00 +9°C° 0 mm 1 mps 620 mmHg 60%
07:00 +12°C° 0 mm 1 mps 621 mmHg 52%
08:00 +15°C° 0 mm 1 mps 623 mmHg 44%
09:00 +18°C° 0 mm 2 mps 623 mmHg 36%
10:00 +21°C° 0 mm 2 mps 624 mmHg 28%
11:00 +25°C° 0 mm 2 mps 625 mmHg 20%
12:00 +26°C° 0 mm 3 mps 624 mmHg 19%
13:00 +27°C° 0 mm 3 mps 624 mmHg 17%
14:00 +28°C° 0 mm 3 mps 624 mmHg 16%
15:00 +26°C° 0 mm 3 mps 623 mmHg 22%
16:00 +24°C° 0 mm 2 mps 622 mmHg 28%
17:00 +21°C° 0 mm 2 mps 622 mmHg 34%
18:00 +18°C° 0 mm 2 mps 621 mmHg 37%
19:00 +15°C° 0 mm 2 mps 621 mmHg 40%
20:00 +13°C° 0 mm 2 mps 621 mmHg 42%
21:00 +12°C° 0 mm 2 mps 621 mmHg 45%
22:00 +11°C° 0 mm 1 mps 621 mmHg 47%
23:00 +10°C° 0 mm 1 mps 621 mmHg 49%

2 October, Friday

Time Temperature Precipitation Wind Pressure Humidity
00:00 +9°C° 0 mm 1 mps 620 mmHg 53%
01:00 +8°C° 0 mm 1 mps 620 mmHg 56%
02:00 +7°C° 0 mm 1 mps 620 mmHg 60%
03:00 +7°C° 0 mm 1 mps 620 mmHg 65%
04:00 +6°C° 0 mm 1 mps 620 mmHg 70%
05:00 +6°C° 0 mm 1 mps 620 mmHg 75%
06:00 +9°C° 0 mm 1 mps 621 mmHg 67%
07:00 +10°C° 0 mm 2 mps 622 mmHg 59%
08:00 +14°C° 0 mm 2 mps 623 mmHg 51%
09:00 +17°C° 0 mm 3 mps 624 mmHg 44%
10:00 +20°C° 0 mm 3 mps 624 mmHg 37%
11:00 +22°C° 0 mm 4 mps 625 mmHg 30%
12:00 +23°C° 0 mm 4 mps 624 mmHg 28%
13:00 +26°C° 0 mm 4 mps 624 mmHg 26%
14:00 +27°C° 0 mm 4 mps 623 mmHg 24%
15:00 +25°C° 0 mm 4 mps 623 mmHg 30%
16:00 +22°C° 0 mm 4 mps 623 mmHg 36%
17:00 +20°C° 0 mm 4 mps 622 mmHg 43%
18:00 +18°C° 0 mm 3 mps 622 mmHg 53%
19:00 +14°C° 0 mm 3 mps 622 mmHg 63%
20:00 +12°C° 0 mm 2 mps 621 mmHg 73%
21:00 +10°C° 0 mm 2 mps 621 mmHg 79%
22:00 +10°C° 0 mm 2 mps 621 mmHg 85%
23:00 +10°C° 0 mm 1 mps 621 mmHg 91%

3 October, Saturday

Time Temperature Precipitation Wind Pressure Humidity
00:00 +10°C° 0 mm 1 mps 621 mmHg 92%
01:00 +9°C° 0 mm 1 mps 620 mmHg 93%
02:00 +9°C° 0 mm 1 mps 620 mmHg 95%
03:00 +9°C° 0 mm 1 mps 620 mmHg 95%
04:00 +9°C° 0 mm 1 mps 620 mmHg 95%
05:00 +9°C° 0 mm 1 mps 620 mmHg 95%
06:00 +11°C° 0 mm 1 mps 621 mmHg 86%
07:00 +14°C° 0 mm 1 mps 622 mmHg 77%
08:00 +16°C° 0 mm 2 mps 623 mmHg 68%
09:00 +19°C° 0 mm 3 mps 623 mmHg 59%
10:00 +21°C° 0 mm 3 mps 624 mmHg 51%
11:00 +25°C° 0 mm 4 mps 624 mmHg 42%
12:00 +25°C° 0 mm 4 mps 624 mmHg 40%
13:00 +26°C° 0 mm 4 mps 623 mmHg 38%
14:00 +27°C° 0 mm 4 mps 623 mmHg 36%
15:00 +25°C° 0 mm 3 mps 622 mmHg 42%
16:00 +24°C° 0 mm 3 mps 622 mmHg 47%
17:00 +21°C° 0 mm 2 mps 622 mmHg 52%
18:00 +19°C° 0 mm 2 mps 621 mmHg 60%
19:00 +17°C° 0 mm 2 mps 621 mmHg 68%
20:00 +15°C° 0 mm 2 mps 621 mmHg 76%
21:00 +14°C° 0 mm 2 mps 621 mmHg 81%
22:00 +13°C° 0 mm 2 mps 621 mmHg 86%
23:00 +12°C° 0 mm 1 mps 621 mmHg 91%
Show more